CW2313 Weather Reports


Display with metric or nautical units.
time (UTC)temp
F
wind
direction
speed
MPH
gust
MPH
rain 1hr
in
rain 24hr
in
rain mn
in
humidity
%
barometer
mb
20260507010059 59 184 0.0 9.0 0.00 0.00 0.00 53 1018.6
20260507004541 59 199 0.0 3.0 0.00 0.00 0.00 51 1018.6
20260507003041 61 191 0.0 7.0 0.00 0.00 0.00 48 1018.6
20260507001526 61 188 0.0 8.0 0.00 0.00 0.00 50 1018.6
20260507000026 62 216 1.0 10.0 0.00 0.00 0.00 52 1018.5
20260506234505 62 185 0.0 4.0 0.00 0.00 0.00 53 1018.6
20260506233004 61 186 0.0 12.0 0.00 0.00 0.00 58 1018.4
20260506231547 62 220 0.0 5.0 0.00 0.00 0.00 55 1018.4
20260506230059 63 135 0.0 1.0 0.00 0.00 0.00 52 1018.5
20260506224529 62 198 0.0 1.0 0.00 0.00 0.00 52 1018.7
20260506223028 63 191 0.0 3.0 0.00 0.00 0.00 51 1018.9
20260506221512 63 172 0.0 8.0 0.00 0.00 0.00 49 1018.9
20260506220011 65 235 0.0 0.0 0.00 0.00 0.00 46 1018.9
20260506214553 63 254 0.0 1.0 0.00 0.00 0.00 51 1019.0
20260506213056 63 211 0.0 3.0 0.00 0.00 0.00 51 1018.9
20260506211541 63 206 0.0 12.0 0.00 0.00 0.00 49 1018.8
20260506210042 63 193 0.0 0.0 0.00 0.00 0.00 50 1019.0
20260506204521 63 206 0.0 16.0 0.00 0.00 0.00 52 1018.9
20260506203015 63 204 0.0 10.0 0.00 0.00 0.00 53 1018.9
20260506201557 63 110 0.0 2.0 0.00 0.00 0.00 54 1018.9
20260506200056 63 239 0.0 9.0 0.00 0.00 0.00 51 1018.8
20260506194542 63 206 0.0 5.0 0.00 0.00 0.00 50 1018.9
20260506193046 62 192 0.0 8.0 0.00 0.00 0.00 51 1019.0
20260506191515 61 182 0.0 15.0 0.00 0.00 0.00 52 1019.0
20260506190016 61 195 0.0 4.0 0.00 0.00 0.00 53 1019.2
20260506184559 60 262 0.0 0.0 0.00 0.00 0.00 54 1019.3
20260506183103 60 196 0.0 2.0 0.00 0.00 0.00 55 1019.4
20260506181548 60 197 0.0 0.0 0.00 0.00 0.00 56 1019.4
20260506180036 60 235 0.0 0.0 0.00 0.00 0.00 53 1019.3
20260506174517 59 221 0.0 0.0 0.00 0.00 0.00 52 1019.4
20260506173015 59 221 0.0 0.0 0.00 0.00 0.00 56 1019.5
20260506171604 59 215 0.0 0.0 0.00 0.00 0.00 58 1019.3
20260506170107 58 206 0.0 0.0 0.00 0.00 0.00 57 1019.2
20260506164537 57 210 0.0 0.0 0.00 0.00 0.00 59 1019.0
20260506163043 57 225 0.0 0.0 0.00 0.00 0.00 60 1019.0
20260506161514 56 204 0.0 0.0 0.00 0.00 0.00 61 1015.6
20260506160010 55 263 0.0 0.0 0.00 0.00 0.00 63 1018.5
20260506154607 55 206 0.0 0.0 0.00 0.00 0.00 64 1019.0
20260506153046 54 217 0.0 0.0 0.00 0.00 0.00 65 1019.1
20260506151526 54 198 0.0 0.0 0.00 0.00 0.00 66 1019.1
20260506150022 54 167 0.0 0.0 0.00 0.00 0.00 66 1019.2
20260506144501 54 235 0.0 0.0 0.00 0.00 0.00 65 1019.0
20260506143057 53 210 0.0 0.0 0.00 0.00 0.00 65 1018.9
20260506141536 53 177 0.0 0.0 0.00 0.00 0.00 66 1018.9
20260506140035 52 216 0.0 0.0 0.00 0.00 0.00 67 1018.7
20260506134511 51 213 0.0 0.0 0.00 0.00 0.00 68 1018.8
20260506133007 50 214 0.0 0.0 0.00 0.00 0.00 70 1018.6
20260506131554 49 225 0.0 0.0 0.00 0.00 0.00 74 1018.5
20260506130114 48 232 0.0 1.0 0.00 0.00 0.00 74 1018.5
20260506124551 47 200 0.0 0.0 0.00 0.00 0.00 77 1018.3
20260506123051 47 229 0.0 0.0 0.00 0.00 0.00 79 1018.2
20260506121550 47 229 0.0 0.0 0.00 0.00 0.00 79 1018.1
20260506120048 47 229 0.0 0.0 0.00 0.00 0.00 78 1018.0
20260506114549 47 229 0.0 0.0 0.00 0.00 0.00 77 1018.0
20260506113045 48 229 0.0 0.0 0.00 0.00 0.00 76 1018.1
20260506111527 48 229 0.0 0.0 0.00 0.00 0.00 75 1018.1
20260506110026 48 229 0.0 0.0 0.00 0.00 0.00 73 1017.9
20260506104520 49 229 0.0 0.0 0.00 0.00 0.00 71 1017.9
20260506103008 49 229 0.0 0.0 0.00 0.00 0.00 69 1017.8
20260506101549 49 229 0.0 0.0 0.00 0.00 0.00 67 1017.7
20260506100045 48 42 0.0 0.0 0.00 0.00 0.00 68 1017.7
20260506094532 48 42 0.0 0.0 0.00 0.00 0.00 68 1017.7
20260506093023 47 42 0.0 0.0 0.00 0.00 0.00 69 1017.8
20260506091504 48 42 0.0 0.0 0.00 0.00 0.00 70 1017.8
20260506090003 48 42 0.0 0.0 0.00 0.00 0.00 71 1017.7
20260506084545 48 42 0.0 0.0 0.00 0.00 0.00 71 1017.7
20260506083047 48 42 0.0 0.0 0.00 0.00 0.00 70 1017.8
20260506081525 48 42 0.0 0.0 0.00 0.00 0.00 70 1017.8
20260506073006 49 42 0.0 0.0 0.00 0.00 0.00 71 1017.7
20260506071631 48 42 0.0 0.0 0.00 0.00 0.00 72 1017.7
20260506061526 48 42 0.0 0.0 0.00 0.00 0.00 67 1017.4
20260506044535 48 42 0.0 0.0 0.00 0.00 0.00 74 1017.1
20260506043016 48 42 0.0 0.0 0.00 0.00 0.00 74 1017.0
20260506041510 49 41 0.0 0.0 0.00 0.00 0.00 72 1016.9
20260506040053 49 42 0.0 0.0 0.00 0.00 0.00 71 1016.9
20260506034557 50 42 0.0 0.0 0.00 0.00 0.00 68 1016.7
20260506033034 52 42 0.0 0.0 0.00 0.00 0.00 66 1016.5
20260506031533 54 42 0.0 0.0 0.00 0.00 0.00 62 1016.7
20260506030018 55 42 0.0 0.0 0.00 0.00 0.00 60 1016.7
20260506024526 56 215 0.0 0.0 0.00 0.00 0.00 59 1016.5
20260506023056 57 213 0.0 0.0 0.00 0.00 0.00 57 1016.5
20260506021601 57 320 0.0 0.0 0.00 0.00 0.00 56 1016.5
20260506020039 57 73 0.0 5.0 0.00 0.00 0.00 56 1016.4
20260506014539 58 39 0.0 3.0 0.00 0.00 0.00 56 1016.3
20260506013024 58 321 0.0 0.0 0.00 0.00 0.00 59 1016.3
20260506011526 59 28 0.0 1.0 0.00 0.00 0.00 57 1016.3